RADUGA-1 8 [+]

Last updated on Tue May 03 2016 23:39:09 GMT+0000 (Coordinated Universal Time)

1 34264U 09010A 16124.81171657 -.00000317 00000-0 00000+0 0 9990 2 34264 4.9468 72.3884 0009412 296.1572 258.5438 0.99822112 26278
UTC large
Height (km)
Speed (km/s)
/
Latitude / Longitude
Inclination (degrees)
Orbital Period (minutes)
Azimuth
Elevation
Range (km)
Doppler Factor

Next 0 passes for location: London (51.5072 / 0.1276)

Sorry there are no passes over London.